sat.trackr.live / text

‹ back to catalog

STARLINK-5142

NORAD 53984 · 2022-125W

PAYLOAD ACTIVE UNKNOWN

§ Identity

Operator
Country
US
Launch date
2022-10-05
Launch site
AFWTR
Launch vehicle
Mass (kg)
RCS (m²)

Purposes: comms

External: N2YO · Heavens-Above · Gunter

§ Orbital elements

Epoch: 2026-05-25T05:15:02.862432Z

Period
95.44 min
Inclination
53.2118°
Eccentricity
0.0001126
Mean motion
15.08830777 rev/d
Perigee alt
539.0 km
Apogee alt
540.6 km
Semi-major
6,917.9 km
B*
7.5583e-5
RAAN
230.7218°
Arg perigee
89.2675°
Mean anomaly
270.8446°
Rev number
20,101

§ Raw data

STARLINK-51421 53984U 22125W   26145.21878313  .00000915  00000+0  75583-4 0  99982 53984  53.2118 230.7218 0001126  89.2675 270.8446 15.08830777201012

JSON: /api/v1/satellites/53984 · /tle

For live sub-satellite position, see the globe view (requires WebGL).

§ Visibility from observer

Set your observer location to see the next 7 days of passes ≥ 10°. The values pass through the URL so the page stays shareable.

No JS? Fill the form by hand. The geolocation button needs JavaScript.